DW1373 Gig Harbor WA US current weather conditions

sailwx.info

Wind from 030 at 0 knots gusting 2

Air temperature 16.7° C
Dewpoint 7.3° C

Last reported at 2020-Jul-14 04:58 UTC.
Time now 2020-Jul-14 06:03 UTC

Location: N 47°21' W 122°35'.
View on Google Maps.

See reports from other nearby stations

  
Tides and Currents Weather Stations Pressure Air Temp Water Temp Dewpoint Dewpoint Depression Visibility Wind Speed Wind Dir Waves Ship Positions
date/time (UTC)wind fromknots sea level pressurealtimeterstation pressurevisibilityair tempwater tempwave heightnotes
2020-Jul-14 04:58 030 0 gusting 2 16.7
2020-Jul-14 04:53 347 0 gusting 2 17.2
2020-Jul-14 04:48 275 0 gusting 1 17.2
2020-Jul-14 04:43 058 17.2
2020-Jul-14 04:38 327 17.2
2020-Jul-14 04:33 327 17.8
2020-Jul-14 04:28 327 17.8
2020-Jul-14 04:23 327 17.8
2020-Jul-14 04:03 334 18.3
2020-Jul-14 03:58 334 18.3
2020-Jul-14 03:53 334 18.9
2020-Jul-14 03:48 334 18.9
2020-Jul-14 03:43 334 18.9
2020-Jul-14 03:38 005 0 gusting 2 18.9
2020-Jul-14 03:33 307 0 gusting 1 19.4
2020-Jul-14 03:28 014 0 gusting 1 19.4
2020-Jul-14 03:23 038 0 gusting 1 19.4
2020-Jul-14 03:18 300 0 gusting 1 19.4
2020-Jul-14 03:03 322 20.0
2020-Jul-14 02:58 009 0 gusting 2 20.0
2020-Jul-14 02:53 022 0 gusting 4 20.0
2020-Jul-14 02:38 020 1 gusting 2 20.6
2020-Jul-14 02:33 053 1 gusting 6 20.6
2020-Jul-14 02:23 086 0 gusting 2 20.6
2020-Jul-14 02:08 022 0 gusting 2 20.6
2020-Jul-14 02:03 099 1 gusting 6 21.1
2020-Jul-14 01:58 015 2 gusting 4 21.1
2020-Jul-14 01:53 028 1 gusting 4 21.1
2020-Jul-14 01:43 006 0 gusting 4 21.7
2020-Jul-14 01:38 047 1 gusting 2 21.7
2020-Jul-14 01:33 052 0 gusting 1 21.7
2020-Jul-14 01:28 028 3 gusting 7 21.7
2020-Jul-14 01:18 041 2 gusting 6 22.2
2020-Jul-14 01:13 030 1 gusting 4 22.2
2020-Jul-14 01:08 105 2 gusting 4 22.2
2020-Jul-14 01:03 031 3 gusting 8 22.2
2020-Jul-14 00:58 033 1 gusting 7 22.2
2020-Jul-14 00:48 035 1 gusting 6 22.8
2020-Jul-14 00:43 054 2 gusting 5 22.8
2020-Jul-14 00:38 032 1 gusting 7 22.8
2020-Jul-14 00:33 058 1 gusting 6 22.8
2020-Jul-14 00:28 044 1 gusting 7 22.8
2020-Jul-14 00:23 354 1 gusting 5 22.8
2020-Jul-14 00:18 085 0 gusting 1 22.8
2020-Jul-14 00:13 187 0 gusting 6 22.8
2020-Jul-13 23:58 029 1 gusting 10 22.8
2020-Jul-13 23:53 340 2 gusting 11 23.3
2020-Jul-13 23:38 287 2 gusting 4 23.3
2020-Jul-13 23:33 079 1 gusting 11 23.3
2020-Jul-13 23:28 050 0 gusting 5 23.3
2020-Jul-13 23:23 109 1 gusting 2 23.3
2020-Jul-13 23:18 125 1 gusting 2 23.3
2020-Jul-13 23:13 093 0 gusting 1 23.3
2020-Jul-13 23:08 130 0 gusting 2 23.3
2020-Jul-13 23:03 086 0 gusting 4 23.3
2020-Jul-13 22:48 042 0 gusting 2 23.3
2020-Jul-13 22:43 100 0 gusting 2 23.9
2020-Jul-13 22:38 165 1 gusting 6 23.9
2020-Jul-13 22:33 127 0 gusting 6 23.9
2020-Jul-13 22:28 071 1 gusting 6 23.9
2020-Jul-13 22:18 118 0 gusting 2 23.3
2020-Jul-13 22:13 133 1 gusting 2 23.3
2020-Jul-13 22:08 088 1 gusting 2 23.9
2020-Jul-13 21:58 134 0 gusting 5 23.9
2020-Jul-13 21:48 098 0 gusting 2 23.3
2020-Jul-13 21:33 117 0 gusting 6 22.8
2020-Jul-13 21:28 095 1 gusting 6 22.8
2020-Jul-13 21:23 111 0 gusting 6 22.8
2020-Jul-13 21:18 134 1 gusting 10 22.2
2020-Jul-13 21:13 037 1 gusting 2 22.2
2020-Jul-13 21:03 112 0 gusting 2 22.8
2020-Jul-13 20:53 077 1 gusting 2 23.3
2020-Jul-13 20:38 062 0 gusting 2 23.3
2020-Jul-13 20:33 002 0 gusting 2 22.8
2020-Jul-13 20:28 077 0 gusting 2 22.8
2020-Jul-13 20:18 102 1 gusting 2 22.8
2020-Jul-13 20:13 087 0 gusting 5 22.8
2020-Jul-13 19:58 072 1 gusting 2 22.2
2020-Jul-13 19:53 137 1 gusting 4 22.2
2020-Jul-13 19:43 015 2 gusting 5 21.7
2020-Jul-13 19:38 322 5 gusting 11 21.7
2020-Jul-13 19:33 053 0 gusting 2 21.7
2020-Jul-13 19:28 061 2 gusting 8 21.1
2020-Jul-13 19:23 054 2 gusting 5 21.1
2020-Jul-13 18:58 126 1 gusting 2 20.6
2020-Jul-13 18:53 114 1 gusting 2 20.0
2020-Jul-13 18:48 108 0 gusting 5 20.0
2020-Jul-13 18:43 137 0 gusting 2 20.0
2020-Jul-13 18:38 021 1 gusting 2 19.4
2020-Jul-13 18:33 342 2 gusting 6 19.4
2020-Jul-13 18:28 018 1 gusting 2 18.9
2020-Jul-13 18:18 342 2 gusting 6 18.3
2020-Jul-13 18:13 018 2 gusting 7 18.3
2020-Jul-13 18:08 012 1 gusting 6 17.8
2020-Jul-13 17:48 145 0 gusting 4 16.7
2020-Jul-13 17:38 129 1 gusting 5 16.1
2020-Jul-13 17:28 025 1 gusting 2 16.1
2020-Jul-13 17:23 145 1 gusting 6 15.6
2020-Jul-13 17:18 122 0 gusting 4 15.6
2020-Jul-13 17:08 067 1 gusting 2 15.0
2020-Jul-13 16:53 114 1 gusting 2 14.4
2020-Jul-13 16:48 136 0 gusting 2 14.4
2020-Jul-13 16:33 299 0 gusting 2 13.9
2020-Jul-13 16:23 180 0 gusting 2 13.9
2020-Jul-13 16:18 090 0 gusting 2 13.9
2020-Jul-13 16:03 332 0 gusting 1 13.3
2020-Jul-13 15:58 078 0 gusting 1 13.3
2020-Jul-13 15:38 332 1 gusting 2 12.8
2020-Jul-13 15:33 358 1 gusting 2 12.2
2020-Jul-13 15:28 261 0 gusting 1 12.2
2020-Jul-13 15:23 298 0 gusting 0 12.2
2020-Jul-13 15:18 039 0 gusting 2 12.2
2020-Jul-13 15:13 013 0 gusting 1 11.7
2020-Jul-13 15:08 053 11.7
2020-Jul-13 14:58 044 1 gusting 2 11.1
2020-Jul-13 14:53 050 0 gusting 2 11.1
2020-Jul-13 14:48 025 11.1
2020-Jul-13 14:33 026 10.6
2020-Jul-13 14:23 026 0 gusting 2 10.6
2020-Jul-13 14:18 049 0 gusting 1 10.6
2020-Jul-13 14:13 145 10.0
2020-Jul-13 14:08 169 10.0
2020-Jul-13 13:43 246 10.0
2020-Jul-13 13:38 244 10.0
2020-Jul-13 13:28 244 10.0
2020-Jul-13 13:23 244 10.0
2020-Jul-13 13:18 244 10.0
2020-Jul-13 13:08 244 0 gusting 1 10.0
2020-Jul-13 13:03 244 10.0
2020-Jul-13 12:58 244 10.0
2020-Jul-13 12:53 244 10.0
2020-Jul-13 12:48 244 10.0
2020-Jul-13 12:43 239 10.0
2020-Jul-13 12:38 239 10.0
2020-Jul-13 12:33 239 10.0
2020-Jul-13 12:28 239 10.0
2020-Jul-13 12:23 300 10.0
2020-Jul-13 12:18 300 10.6
2020-Jul-13 12:13 300 10.6
2020-Jul-13 12:08 300 10.6
2020-Jul-13 11:58 300 10.6
2020-Jul-13 11:53 300 10.6
2020-Jul-13 11:48 300 10.6
2020-Jul-13 11:43 300 10.6
2020-Jul-13 11:38 300 10.6
2020-Jul-13 11:33 300 11.1
2020-Jul-13 11:23 300 11.1
2020-Jul-13 11:18 300 11.1
2020-Jul-13 11:13 300 11.1
2020-Jul-13 11:03 300 11.1
2020-Jul-13 10:58 300 11.7
2020-Jul-13 10:53 300 11.7
2020-Jul-13 10:48 300 0 gusting 1 11.7
2020-Jul-13 10:43 317 11.7
2020-Jul-13 10:33 327 11.7
2020-Jul-13 10:23 327 12.2
2020-Jul-13 10:13 327 12.2
2020-Jul-13 10:08 327 12.2
2020-Jul-13 09:58 327 12.2
2020-Jul-13 09:53 327 12.2
2020-Jul-13 09:48 327 12.8
2020-Jul-13 09:38 327 12.8
2020-Jul-13 09:33 327 12.8
2020-Jul-13 09:28 327 12.8
2020-Jul-13 09:18 327 12.8
2020-Jul-13 09:08 327 13.3
2020-Jul-13 09:03 336 13.3
2020-Jul-13 08:58 336 13.3
2020-Jul-13 08:53 336 13.3
2020-Jul-13 08:48 336 13.3
2020-Jul-13 08:43 336 13.3
2020-Jul-13 08:38 336 13.3
2020-Jul-13 08:28 333 0 gusting 1 13.9
2020-Jul-13 08:23 333 13.9
2020-Jul-13 08:08 333 13.9
2020-Jul-13 08:03 333 14.4
2020-Jul-13 07:58 333 0 gusting 0 14.4
2020-Jul-13 07:53 333 14.4
2020-Jul-13 07:43 333 14.4
2020-Jul-13 07:38 333 14.4
2020-Jul-13 07:23 333 0 gusting 1 14.4
2020-Jul-13 07:18 340 0 gusting 1 14.4
2020-Jul-13 07:13 056 0 gusting 1 14.4
2020-Jul-13 07:03 013 0 gusting 1 15.0
2020-Jul-13 06:58 330 0 gusting 2 15.0
2020-Jul-13 06:53 053 0 gusting 2 15.0
2020-Jul-13 06:48 034 0 gusting 1 15.0
2020-Jul-13 06:43 120 15.0
2020-Jul-13 06:38 120 15.0
2020-Jul-13 06:33 120 15.0
2020-Jul-13 06:23 024 1 gusting 2 15.0
2020-Jul-13 06:18 328 0 gusting 2 15.0
2020-Jul-13 06:13 071 0 gusting 1 15.0
2020-Jul-13 06:08 080 0 gusting 1 15.0
2020-Jul-13 06:03 222 0 gusting 1 15.6
2020-Jul-13 05:58 229 15.6
2020-Jul-13 05:48 091 0 gusting 1 15.6
2020-Jul-13 05:43 247 0 gusting 1 15.6
2020-Jul-13 05:38 085 0 gusting 1 15.6
2020-Jul-13 05:28 072 0 gusting 2 15.6
2020-Jul-13 05:08 125 0 gusting 1 16.1
2020-Jul-13 05:03 018 1 gusting 2 16.1
2020-Jul-13 04:58 090 0 gusting 2 16.1
2020-Jul-13 04:48 339 0 gusting 2 16.1
2020-Jul-13 04:43 330 1 gusting 2 16.1
2020-Jul-13 04:38 005 1 gusting 2 16.1
2020-Jul-13 04:28 352 0 gusting 1 16.7
2020-Jul-13 04:18 021 0 gusting 2 16.7
2020-Jul-13 04:13 034 0 gusting 4 16.7
2020-Jul-13 04:08 150 0 gusting 1 16.7
2020-Jul-13 04:03 057 0 gusting 2 16.7
2020-Jul-13 03:58 010 1 gusting 4 16.7
2020-Jul-13 03:53 16.7
2020-Jul-13 03:48 021 0 gusting 1 17.2
2020-Jul-13 03:38 339 1 gusting 2 17.2
2020-Jul-13 03:23 036 0 gusting 2 17.8
2020-Jul-13 03:18 341 1 gusting 2 17.8
2020-Jul-13 03:13 087 0 gusting 2 17.8
2020-Jul-13 03:08 029 0 gusting 1 17.8
2020-Jul-13 03:03 009 17.8
2020-Jul-13 02:53 349 0 gusting 4 18.3
2020-Jul-13 02:48 035 1 gusting 2 18.3
2020-Jul-13 02:43 058 0 gusting 2 18.3
2020-Jul-13 02:38 015 0 gusting 2 18.3
2020-Jul-13 02:28 092 0 gusting 1 18.3
2020-Jul-13 02:23 015 18.3
2020-Jul-13 02:18 043 0 gusting 2 18.3
2020-Jul-13 02:13 083 1 gusting 2 18.3
2020-Jul-13 02:03 031 0 gusting 4 18.3
2020-Jul-13 01:43 045 1 gusting 4 18.3
2020-Jul-13 01:33 084 0 gusting 1 18.3
2020-Jul-13 01:23 296 0 gusting 2 18.3
2020-Jul-13 01:08 041 1 gusting 5 18.9
2020-Jul-13 01:03 129 1 gusting 2 19.4
2020-Jul-13 00:48 065 19.4
2020-Jul-13 00:38 047 0 gusting 2 19.4
2020-Jul-13 00:33 071 1 gusting 2 20.0
2020-Jul-13 00:28 113 0 gusting 4 20.0
2020-Jul-13 00:23 014 0 gusting 2 20.0
2020-Jul-13 00:18 045 1 gusting 2 20.0
2020-Jul-13 00:08 077 1 gusting 4 19.4
2020-Jul-12 23:58 014 0 gusting 2 19.4
2020-Jul-12 23:53 032 1 gusting 4 19.4
2020-Jul-12 23:43 047 0 gusting 1 19.4
2020-Jul-12 23:38 094 0 gusting 2 19.4
2020-Jul-12 23:33 029 0 gusting 1 19.4
2020-Jul-12 23:28 185 0 gusting 2 20.0
2020-Jul-12 23:23 164 0 gusting 2 20.6
2020-Jul-12 23:13 199 0 gusting 1 19.4
2020-Jul-12 23:08 191 0 gusting 1 19.4
2020-Jul-12 23:03 163 19.4
2020-Jul-12 22:58 102 0 gusting 2 19.4
2020-Jul-12 22:33 140 1 gusting 2 19.4
2020-Jul-12 22:23 083 0 gusting 1 18.9
2020-Jul-12 22:13 016 0 gusting 2 18.9
2020-Jul-12 22:08 136 0 gusting 2 18.9
2020-Jul-12 22:03 012 1 gusting 4 18.9
2020-Jul-12 21:58 093 0 gusting 2 19.4
2020-Jul-12 21:53 001 1 gusting 4 19.4
2020-Jul-12 21:48 105 0 gusting 0 19.4
2020-Jul-12 21:43 104 18.3
2020-Jul-12 21:38 141 0 gusting 1 18.9
2020-Jul-12 21:33 122 0 gusting 1 18.9
2020-Jul-12 21:23 077 0 gusting 2 18.9
2020-Jul-12 21:13 133 0 gusting 2 19.4
2020-Jul-12 21:08 027 0 gusting 1 19.4
2020-Jul-12 20:58 240 0 gusting 2 19.4
2020-Jul-12 20:53 232 0 gusting 1 18.9
2020-Jul-12 20:48 208 1 gusting 2 18.9
2020-Jul-12 20:43 257 1 gusting 2 19.4
2020-Jul-12 20:18 019 0 gusting 2 18.9
2020-Jul-12 20:13 109 0 gusting 2 18.3
2020-Jul-12 20:08 061 0 gusting 1 18.3
2020-Jul-12 19:58 028 0 gusting 6 17.8
2020-Jul-12 19:43 103 0 gusting 2 17.8
2020-Jul-12 19:38 135 0 gusting 4 17.8
2020-Jul-12 19:28 056 0 gusting 4 17.8
2020-Jul-12 19:23 173 0 gusting 2 17.8
2020-Jul-12 19:13 044 0 gusting 4 17.8
2020-Jul-12 19:08 337 1 gusting 2 17.8
2020-Jul-12 19:03 283 17.2
2020-Jul-12 18:43 012 2 gusting 4 17.2
2020-Jul-12 18:28 285 1 gusting 2 16.7
2020-Jul-12 18:18 323 0 gusting 2 16.7
2020-Jul-12 18:03 009 0 gusting 2 16.1
2020-Jul-12 17:53 259 1 gusting 4 16.1
2020-Jul-12 17:48 236 1 gusting 5 16.1
2020-Jul-12 17:43 259 0 gusting 4 16.1
2020-Jul-12 17:33 288 0 gusting 4 16.1
2020-Jul-12 17:28 279 0 gusting 2 16.1
2020-Jul-12 17:23 293 0 gusting 2 15.6
2020-Jul-12 17:13 340 0 gusting 1 15.6
2020-Jul-12 17:08 354 1 gusting 2 15.6
2020-Jul-12 17:03 210 0 gusting 2 15.0
2020-Jul-12 16:58 238 0 gusting 2 15.0
2020-Jul-12 16:53 245 0 gusting 1 15.0
2020-Jul-12 16:48 182 1 gusting 4 15.0
2020-Jul-12 16:38 278 14.4
2020-Jul-12 16:33 194 1 gusting 2 14.4
2020-Jul-12 16:28 243 2 gusting 5 14.4
2020-Jul-12 16:23 303 1 gusting 5 14.4
2020-Jul-12 16:18 306 0 gusting 5 14.4
2020-Jul-12 16:13 339 1 gusting 2 14.4
2020-Jul-12 16:08 068 0 gusting 2 14.4
2020-Jul-12 15:53 280 1 gusting 5 14.4
2020-Jul-12 15:43 252 1 gusting 7 14.4
2020-Jul-12 15:38 280 2 gusting 7 14.4
2020-Jul-12 15:33 248 2 gusting 5 14.4
2020-Jul-12 15:28 254 2 gusting 6 14.4
2020-Jul-12 15:23 250 1 gusting 2 14.4
2020-Jul-12 15:18 246 0 gusting 4 14.4
2020-Jul-12 15:13 252 1 gusting 5 14.4
2020-Jul-12 15:08 266 1 gusting 2 14.4
2020-Jul-12 15:03 293 0 gusting 4 14.4
2020-Jul-12 14:53 201 1 gusting 4 14.4
2020-Jul-12 14:48 287 0 gusting 2 14.4
2020-Jul-12 14:43 220 1 gusting 4 14.4
2020-Jul-12 14:33 166 1 gusting 6 14.4
2020-Jul-12 14:28 216 2 gusting 6 14.4
2020-Jul-12 14:23 268 2 gusting 10 14.4
2020-Jul-12 14:18 229 0 gusting 6 14.4
2020-Jul-12 14:13 242 0 gusting 5 14.4
2020-Jul-12 14:08 243 2 gusting 6 14.4
2020-Jul-12 13:53 218 1 gusting 6 14.4
2020-Jul-12 13:48 244 1 gusting 6 14.4
2020-Jul-12 13:43 266 1 gusting 6 14.4
2020-Jul-12 13:38 273 1 gusting 6 14.4
2020-Jul-12 13:33 233 3 gusting 6 14.4
2020-Jul-12 13:28 244 4 gusting 10 14.4
2020-Jul-12 13:23 270 2 gusting 5 14.4
2020-Jul-12 13:18 232 2 gusting 8 13.9
2020-Jul-12 13:08 292 1 gusting 6 13.9
2020-Jul-12 13:03 279 2 gusting 2 13.9
2020-Jul-12 12:58 279 2 gusting 6 13.9
2020-Jul-12 12:48 300 2 gusting 7 13.9
2020-Jul-12 12:43 217 2 gusting 6 13.9
2020-Jul-12 12:38 231 2 gusting 6 13.9
2020-Jul-12 12:28 241 2 gusting 6 13.9
2020-Jul-12 12:23 219 2 gusting 10 13.9
2020-Jul-12 12:13 282 2 gusting 7 14.4
2020-Jul-12 11:58 212 3 gusting 8 14.4
2020-Jul-12 11:38 205 1 gusting 6 14.4
2020-Jul-12 11:28 197 1 gusting 6 14.4
2020-Jul-12 11:23 204 1 gusting 4 14.4
2020-Jul-12 11:18 227 1 gusting 6 14.4
2020-Jul-12 11:08 245 2 gusting 5 14.4
2020-Jul-12 11:03 207 1 gusting 5 14.4
2020-Jul-12 10:58 201 0 gusting 4 14.4
2020-Jul-12 10:53 154 2 gusting 6 14.4
2020-Jul-12 10:48 230 1 gusting 6 14.4
2020-Jul-12 10:43 218 1 gusting 4 14.4
2020-Jul-12 10:38 181 2 gusting 6 14.4
2020-Jul-12 10:28 203 1 gusting 6 14.4
2020-Jul-12 10:23 285 1 gusting 4 14.4
2020-Jul-12 10:18 049 0 gusting 5 14.4
2020-Jul-12 10:13 200 2 gusting 6 14.4
2020-Jul-12 10:08 229 3 gusting 7 14.4
2020-Jul-12 10:03 203 1 gusting 6 14.4
2020-Jul-12 09:53 251 1 gusting 2 14.4
2020-Jul-12 09:43 240 0 gusting 6 14.4
2020-Jul-12 09:38 260 1 gusting 2 14.4
2020-Jul-12 09:33 169 1 gusting 4 14.4
2020-Jul-12 09:28 249 1 gusting 4 15.0
2020-Jul-12 09:23 209 2 gusting 4 15.0
2020-Jul-12 09:18 254 0 gusting 2 15.0
2020-Jul-12 09:13 247 2 gusting 6 15.0
2020-Jul-12 09:08 214 1 gusting 2 15.0
2020-Jul-12 09:03 254 1 gusting 5 15.0
2020-Jul-12 08:58 215 1 gusting 2 15.0
2020-Jul-12 08:53 261 1 gusting 4 15.0
2020-Jul-12 08:48 173 0 gusting 2 15.0
2020-Jul-12 08:43 262 1 gusting 4 15.0
2020-Jul-12 08:33 227 0 gusting 6 15.0
2020-Jul-12 08:28 206 0 gusting 6 15.0
2020-Jul-12 08:23 230 1 gusting 4 15.0
2020-Jul-12 08:18 213 1 gusting 2 15.0
2020-Jul-12 08:13 255 1 gusting 2 15.0
2020-Jul-12 08:08 183 0 gusting 2 15.0
2020-Jul-12 08:03 222 1 gusting 6 15.0
2020-Jul-12 07:58 196 1 gusting 4 15.0
2020-Jul-12 07:38 199 1 gusting 5 15.0
2020-Jul-12 07:33 265 1 gusting 4 15.0
2020-Jul-12 07:23 258 1 gusting 2 15.0
2020-Jul-12 07:13 268 1 gusting 6 15.6
2020-Jul-12 07:03 191 1 gusting 8 15.6
2020-Jul-12 06:58 142 0 gusting 2 15.6
2020-Jul-12 06:53 075 1 gusting 2 15.6
2020-Jul-12 06:48 209 1 gusting 6 15.6
2020-Jul-12 06:43 162 1 gusting 5 15.6
2020-Jul-12 06:28 235 2 gusting 10 15.6
2020-Jul-12 06:18 259 1 gusting 2 15.6
2020-Jul-12 06:03 245 1 gusting 2 15.6